This is the latest recevied weather packets stored in our database for station/object W0WC. If no packets are shown the sender has not sent any weather packets the latest 10 day(s).
| Time | Temp. | Humidity | Pressure | Rain* | Wind** | Luminosity | Snow |
|---|---|---|---|---|---|---|---|
| 1777495675 | 16.67° C | 53% | 1017.9 hPa | 0 mm | - | 254 W/m² | - |
| 1777495370 | 17.22° C | 53% | 1017.9 hPa | 0 mm | - | 543 W/m² | - |
| 1777495068 | 17.22° C | 53% | 1018.1 hPa | 0 mm | - | 360 W/m² | - |
| 1777494765 | 17.22° C | 55% | 1018 hPa | 0 mm | - | 227 W/m² | - |
| 1777494462 | 16.67° C | 54% | 1018.2 hPa | 0 mm | - | 637 W/m² | - |
| 1777494158 | 17.22° C | 53% | 1018.1 hPa | 0 mm | - | 190 W/m² | - |
| 1777493856 | 17.22° C | 55% | 1018.2 hPa | 0 mm | - | 726 W/m² | - |
| 1777493554 | 17.78° C | 53% | 1018.5 hPa | 0 mm | - | 724 W/m² | - |
| 1777493251 | 17.78° C | 55% | 1018.5 hPa | 0 mm | - | 719 W/m² | - |
| 1777492947 | 17.22° C | 52% | 1018.4 hPa | 0 mm | - | 711 W/m² | - |
| 1777492644 | 17.22° C | 52% | 1018.2 hPa | 0 mm | - | 720 W/m² | - |
| 1777492339 | 16.67° C | 53% | 1018.6 hPa | 0 mm | - | 733 W/m² | - |
| 1777492036 | 17.22° C | 52% | 1018.5 hPa | 0 mm | - | 756 W/m² | - |
| 1777491733 | 16.67° C | 55% | 1018.6 hPa | 0 mm | - | 743 W/m² | - |
| 1777491430 | 17.22° C | 54% | 1018.6 hPa | 0 mm | - | 746 W/m² | - |
| 1777491127 | 16.67° C | 54% | 1018.5 hPa | 0 mm | - | 751 W/m² | - |
| 1777490822 | 16.11° C | 56% | 1018.7 hPa | 0 mm | - | 740 W/m² | - |
| 1777490519 | 16.11° C | 56% | 1018.8 hPa | 0 mm | - | 562 W/m² | - |
| 1777490215 | 16.67° C | 54% | 1018.8 hPa | 0 mm | - | 505 W/m² | - |
| 1777489913 | 16.67° C | 53% | 1018.7 hPa | 0 mm | - | 668 W/m² | - |
| 1777489610 | 16.67° C | 54% | 1018.9 hPa | 0 mm | - | 649 W/m² | - |
| 1777489306 | 16.67° C | 53% | 1018.9 hPa | 0 mm | - | 751 W/m² | - |
| 1777489004 | 16.67° C | 55% | 1019 hPa | 0 mm | - | 670 W/m² | - |
| 1777488701 | 16.67° C | 55% | 1019.1 hPa | 0 mm | - | 653 W/m² | - |
| 1777488398 | 16.11° C | 56% | 1019 hPa | 0 mm | - | 806 W/m² | - |
* Rain latest hour (hover to see other rain measurements)
** Current wind speed in m/s (hover to see current wind gust speed)